Location: Antichan
(42.9728°N, 0.6667°E)
Time: 08:15:04
(UTC+00:00)

CENTAUR R/B - Pass Details

Date: 15 August 2020
Orbit: 754 x 1434 km, 63.5° (Epoch: 17 September)

Event Time Altitude Azimuth Distance (km) Brightness Sun altitude
Rises 20:49:59 0° 222° (SW) 3,376 5.4 -18.4°
Reaches altitude 10° 20:52:17 10° 224° (SW) 2,513 4.7 -18.7°
Maximum altitude 20:58:06 72° 309° (NW) 1,024 2.7 -19.5°
Drops below altitude 10° 21:05:05 10° 34° (NNE) 2,984 5.1 -20.4°
Sets 21:08:02 0° 36° (NE) 4,054 5.8 -20.8°
